QFA7359 YMML-YSNF

Flight info

Callsign QFA7359
Flight time N/A
Altitude 35000
Route YMML/34 3444S14924E ABARB B450 TEKEP
Aircraft B738/M-SDE2E3FGHIRWXY/LB1

Departure

Time N/A
Airport Melbourne Airport (YMML)

Arrival

Time 2026-04-21 08:18
Airport Norfolk Island International Airport (YSNF)
Time Latitude Longitude Altitude Speed Heading
2026-04-21 07:52 -29.74500 165.93610 34684 ft 507 kts 68°
2026-04-21 07:52 -29.73455 165.97514 34082 ft 510 kts 68°
2026-04-21 07:53 -29.72413 166.01413 33372 ft 509 kts 69°
2026-04-21 07:53 -29.71377 166.05285 32795 ft 504 kts 69°
2026-04-21 07:53 -29.70355 166.09111 32276 ft 496 kts 70°
2026-04-21 07:53 -29.69330 166.12930 31232 ft 502 kts 71°
2026-04-21 07:54 -29.68307 166.16738 30690 ft 494 kts 71°
2026-04-21 07:54 -29.67301 166.20478 30180 ft 487 kts 72°
2026-04-21 07:54 -29.66305 166.24175 29734 ft 477 kts 72°
2026-04-21 07:54 -29.65330 166.27790 28766 ft 479 kts 72°
2026-04-21 07:55 -29.64351 166.31415 28205 ft 472 kts 72°
2026-04-21 07:55 -29.63383 166.34996 27693 ft 465 kts 72°
2026-04-21 07:55 -29.62427 166.38530 27171 ft 460 kts 72°
2026-04-21 07:55 -29.61483 166.42014 26668 ft 454 kts 72°
2026-04-21 07:56 -29.60549 166.45456 26158 ft 449 kts 72°
2026-04-21 07:56 -29.59622 166.48869 25653 ft 445 kts 72°
2026-04-21 07:56 -29.58704 166.52246 25160 ft 441 kts 72°
2026-04-21 07:56 -29.57790 166.55603 24671 ft 438 kts 72°
2026-04-21 07:57 -29.56885 166.58925 24187 ft 434 kts 72°
2026-04-21 07:57 -29.55985 166.62224 23714 ft 431 kts 72°
2026-04-21 07:57 -29.55089 166.65502 23182 ft 428 kts 73°
2026-04-21 07:57 -29.54199 166.68758 22640 ft 425 kts 73°
2026-04-21 07:58 -29.53319 166.71973 22168 ft 421 kts 73°
2026-04-21 07:58 -29.52445 166.75165 21692 ft 417 kts 73°
2026-04-21 07:58 -29.51600 166.78246 21225 ft 413 kts 73°
2026-04-21 07:58 -29.50739 166.81383 20753 ft 410 kts 73°
2026-04-21 07:59 -29.49885 166.84491 20281 ft 407 kts 73°
2026-04-21 07:59 -29.49035 166.87580 19816 ft 405 kts 73°
2026-04-21 07:59 -29.48191 166.90647 19358 ft 402 kts 73°
2026-04-21 07:59 -29.47349 166.93702 18899 ft 400 kts 73°
2026-04-21 08:00 -29.46521 166.96703 18448 ft 398 kts 73°
2026-04-21 08:00 -29.45687 166.99722 17960 ft 396 kts 73°
2026-04-21 08:00 -29.44857 167.02727 17454 ft 394 kts 73°
2026-04-21 08:00 -29.44028 167.05721 16974 ft 392 kts 72°
2026-04-21 08:01 -29.43206 167.08690 16519 ft 389 kts 72°
2026-04-21 08:01 -29.42389 167.11638 16065 ft 387 kts 72°
2026-04-21 08:01 -29.41850 167.13581 15763 ft 385 kts 72°
2026-04-21 08:02 -29.39960 167.20384 14716 ft 380 kts 72°
2026-04-21 08:02 -29.39157 167.23269 14278 ft 378 kts 72°
2026-04-21 08:02 -29.38358 167.26137 13837 ft 377 kts 72°
2026-04-21 08:02 -29.37560 167.29001 13353 ft 376 kts 72°
2026-04-21 08:03 -29.36775 167.31813 12886 ft 374 kts 72°
2026-04-21 08:03 -29.35988 167.34633 12423 ft 371 kts 72°
2026-04-21 08:03 -29.35200 167.37448 11980 ft 369 kts 72°
2026-04-21 08:03 -29.34418 167.40244 11546 ft 367 kts 72°
2026-04-21 08:04 -29.33641 167.43018 11115 ft 365 kts 72°
2026-04-21 08:04 -29.32868 167.45777 10817 ft 359 kts 72°
2026-04-21 08:04 -29.32115 167.48461 10665 ft 349 kts 72°
2026-04-21 08:04 -29.31385 167.51061 10583 ft 337 kts 72°
2026-04-21 08:05 -29.30675 167.53585 10446 ft 328 kts 72°
2026-04-21 08:05 -29.30216 167.55218 10357 ft 322 kts 72°
2026-04-21 08:07 -29.29490 167.57801 10219 ft 313 kts 72°
2026-04-21 08:07 -29.28831 167.60142 10088 ft 305 kts 72°
2026-04-21 08:07 -29.28187 167.62425 9934 ft 298 kts 72°
2026-04-21 08:07 -29.27552 167.64679 9655 ft 297 kts 72°
2026-04-21 08:08 -29.26919 167.66921 9370 ft 295 kts 72°
2026-04-21 08:08 -29.26289 167.69154 9086 ft 293 kts 72°
2026-04-21 08:08 -29.25663 167.71368 8807 ft 292 kts 72°
2026-04-21 08:08 -29.25040 167.73572 8527 ft 290 kts 72°
2026-04-21 08:09 -29.24430 167.75729 8260 ft 288 kts 72°
2026-04-21 08:09 -29.23813 167.77910 7992 ft 287 kts 72°
2026-04-21 08:09 -29.23200 167.80075 7717 ft 286 kts 72°
2026-04-21 08:09 -29.22588 167.82233 7448 ft 285 kts 72°
2026-04-21 08:10 -29.22006 167.84281 7191 ft 284 kts 72°
2026-04-21 08:10 -29.21398 167.86422 6919 ft 283 kts 72°
2026-04-21 08:10 -29.20998 167.88611 6625 ft 281 kts 94°
2026-04-21 08:10 -29.21258 167.90807 6394 ft 277 kts 100°
2026-04-21 08:11 -29.21424 167.92960 6099 ft 278 kts 92°
2026-04-21 08:11 -29.21353 167.95181 5830 ft 278 kts 85°
2026-04-21 08:11 -29.21043 167.97361 5610 ft 275 kts 77°
2026-04-21 08:11 -29.20524 167.99433 5501 ft 268 kts 71°
2026-04-21 08:12 -29.19902 168.01265 5353 ft 263 kts 66°
2026-04-21 08:12 -29.19030 168.03160 5021 ft 264 kts 56°
2026-04-21 08:12 -29.17967 168.04871 4765 ft 263 kts 49°
2026-04-21 08:12 -29.16763 168.06427 4499 ft 260 kts 43°
2026-04-21 08:13 -29.15448 168.07819 4340 ft 251 kts 37°
2026-04-21 08:13 -29.14090 168.08994 4212 ft 239 kts 30°
2026-04-21 08:13 -29.12678 168.09960 4060 ft 236 kts 19°
2026-04-21 08:13 -29.11117 168.10217 3850 ft 220 kts 346°
2026-04-21 08:14 -29.09846 168.09629 3606 ft 201 kts 317°
2026-04-21 08:14 -29.08949 168.08518 3386 ft 182 kts 296°
2026-04-21 08:14 -29.08476 168.07225 3083 ft 173 kts 283°
2026-04-21 08:14 -29.08125 168.05929 2842 ft 168 kts 283°
2026-04-21 08:15 -29.07793 168.04689 2612 ft 163 kts 282°
2026-04-21 08:15 -29.07475 168.03483 2434 ft 153 kts 282°
2026-04-21 08:15 -29.07241 168.02328 2186 ft 145 kts 277°
2026-04-21 08:15 -29.07060 168.01216 1961 ft 141 kts 275°
2026-04-21 08:16 -29.06801 168.00142 1737 ft 146 kts 284°
2026-04-21 08:16 -29.06458 167.99046 1478 ft 145 kts 285°
2026-04-21 08:16 -29.06088 167.97978 1170 ft 140 kts 288°
2026-04-21 08:16 -29.05708 167.96969 991 ft 143 kts 289°
2026-04-21 08:17 -29.05258 167.96015 765 ft 132 kts 292°
2026-04-21 08:17 -29.04817 167.95148 535 ft 124 kts 289°
2026-04-21 08:17 -29.04377 167.94317 361 ft 119 kts 294°
2026-04-21 08:17 -29.03969 167.93571 325 ft 96 kts 305°
2026-04-21 08:18 -29.03733 167.93145 329 ft 12 kts 308°
2026-04-21 08:18 -29.03700 167.93089 328 ft 11 kts 304°
2026-04-21 08:18 -29.03666 167.93009 324 ft 10 kts 291°
2026-04-21 08:18 -29.03646 167.92961 324 ft 5 kts 338°
2026-04-21 08:19 -29.03634 167.92987 324 ft 4 kts 114°
2026-04-21 08:19 -29.03653 167.93017 324 ft 8 kts 125°
2026-04-21 08:19 -29.03667 167.93040 323 ft 10 kts 124°
2026-04-21 08:19 -29.03671 167.93047 327 ft 10 kts 126°
2026-04-21 08:20 -29.03729 167.93139 327 ft 19 kts 125°
2026-04-21 08:20 -29.03811 167.93280 327 ft 24 kts 122°
2026-04-21 08:20 -29.03901 167.93443 327 ft 24 kts 122°
2026-04-21 08:20 -29.03989 167.93596 322 ft 23 kts 122°
2026-04-21 08:21 -29.04071 167.93746 325 ft 22 kts 122°
2026-04-21 08:21 -29.04143 167.93877 326 ft 21 kts 122°
2026-04-21 08:21 -29.04160 167.93994 325 ft 15 kts 57°
2026-04-21 08:21 -29.04096 167.94082 330 ft 14 kts 49°
2026-04-21 08:22 -29.04033 167.94165 330 ft 13 kts 49°
2026-04-21 08:22 -29.03975 167.94242 331 ft 13 kts 50°
2026-04-21 08:22 -29.03935 167.94293 329 ft 13 kts 39°
2026-04-21 08:22 -29.03853 167.94322 330 ft 12 kts
2026-04-21 08:23 -29.03741 167.94346 334 ft 12 kts 11°
2026-04-21 08:23 -29.03660 167.94365 337 ft 12 kts 12°
2026-04-21 08:23 -29.03641 167.94370 337 ft 0 kts 12°
2026-04-21 08:23 -29.03614 167.94376 337 ft 6 kts 11°
2026-04-21 08:24 -29.03585 167.94386 335 ft 3 kts 30°
2026-04-21 08:24 -29.03569 167.94400 336 ft 2 kts 32°
2026-04-21 08:24 -29.03557 167.94398 336 ft 2 kts 343°
2026-04-21 08:24 -29.03546 167.94386 338 ft 0 kts 317°